RH
100 97 90 88 86 83 77 68 58 48 50 42 42 46 42 42 32 56 29 20 19 16 24 26 21 21 17 12 12 12 13 13 13 13 16 24 31 48 42 41 48 51 48 58 100
100 100 100 96 94 91 85 78 66 57 49 43 41 46 42 40 54 35 25 20 14 17 22 15 14 16 15 14 12 14 14 12 10 10 12 14 28 37 43 43 48 70 86 98 100
95 93 99 100 99 97 95 86 79 66 54 47 42 47 43 35 37 16 26 22 14 18 22 17 13 15 15 14 14 14 13 12 12 12 11 12 23 24 33 31 37 54 88 92 93
86 90 90 98 100 93 91 95 86 77 65 54 43 48 42 58 16 24 17 28 18 32 21 15 12 14 16 16 14 16 12 13 13 12 14 17 21 32 32 39 43 51 76 89 91
82 82 85 91 92 96 89 91 94 87 75 63 52 49 51 29 19 17 15 27 25 31 17 13 12 14 16 14 16 17 13 14 16 22 20 28 28 33 40 47 53 64 82 83 83
84 79 80 80 90 93 89 89 92 93 89 72 62 53 53 31 19 21 31 35 26 23 17 13 15 16 18 18 19 16 16 17 24 25 29 31 34 35 44 54 64 74 79 77 80
83 69 75 82 82 88 92 98 92 92 96 83 68 74 54 31 24 30 31 28 24 20 15 15 15 18 19 18 18 18 20 17 26 27 30 30 33 31 41 58 73 73 73 71 71
84 83 67 81 84 84 94 98 90 92 92 83 63 77 42 28 29 29 31 29 27 23 20 18 18 19 20 19 18 18 18 17 25 28 32 31 26 29 44 51 58 71 66 69 70
84 86 73 77 80 81 84 92 91 90 88 73 83 66 35 29 30 22 23 24 25 25 24 19 19 21 23 21 18 16 18 16 27 27 28 30 24 33 48 47 42 51 54 58 62
85 86 85 70 80 83 78 78 90 90 94 98 81 62 33 19 20 30 26 20 20 24 24 23 22 24 22 21 20 16 20 17 17 23 28 25 21 27 47 46 42 40 44 53 52
80 86 85 71 76 86 89 87 62 58 75 39 38 32 22 24 32 26 28 23 17 22 25 26 25 26 19 19 26 20 20 18 17 18 26 23 21 17 37 52 44 38 38 44 47
76 81 84 76 76 83 99 72 56 64 59 41 43 37 35 34 33 27 26 20 22 26 25 29 27 20 22 24 27 24 19 18 20 20 23 19 18 16 25 44 42 39 42 38 40
78 80 82 82 77 96 98 70 67 66 61 45 39 35 28 34 30 22 22 17 21 24 26 24 22 24 26 26 28 25 23 22 21 21 20 20 17 19 28 38 45 47 40 33 34
72 82 82 82 81 84 79 74 73 75 62 34 44 38 32 27 33 19 22 16 20 24 22 23 19 26 25 26 23 26 19 21 22 21 23 20 24 18 18 28 35 36 40 38 32
76 79 82 80 98 82 71 83 81 74 31 24 43 34 32 24 20 22 19 19 20 22 25 23 26 27 26 22 22 22 23 24 23 23 27 24 23 17 20 19 23 31 33 36 36
84 73 86 81 89 84 80 88 74 67 41 26 45 50 45 32 25 22 22 18 14 22 23 19 23 23 21 23 23 23 27 28 28 28 33 24 23 18 15 15 16 16 24 28 32
75 80 90 70 67 78 93 75 73 54 24 24 48 48 35 31 28 24 24 27 24 30 30 24 23 22 24 26 27 26 26 35 42 39 34 28 28 19 16 17 18 19 19 20 27
75 83 83 82 72 91 88 96 59 21 28 30 36 41 40 24 24 24 25 25 18 19 21 26 30 23 24 24 24 27 25 31 38 36 30 30 26 17 18 17 20 23 24 24 23
83 90 88 88 74 98 92 88 32 30 28 29 32 47 40 24 22 26 26 23 20 19 23 25 22 23 25 25 23 31 32 25 37 51 44 25 20 16 16 17 21 20 21 23 22
87 98 86 83 82 98 91 58 33 29 32 43 31 35 48 31 27 25 27 21 21 18 15 23 26 26 32 28 29 29 24 34 33 42 39 27 25 18 17 20 16 16 17 20 26
90 96 66 83 82 98 88 53 37 31 38 46 38 44 31 31 25 27 27 22 19 23 18 20 22 39 34 32 26 32 32 31 28 31 37 36 25 16 16 17 22 22 20 21 25
86 98 73 76 97 92 78 47 36 34 41 45 48 50 48 30 26 21 23 20 19 19 26 21 22 30 27 29 27 23 26 28 34 34 37 40 30 14 16 19 18 19 21 24 28
96 96 85 70 92 91 62 52 37 39 36 46 48 45 48 46 33 25 22 20 22 20 22 24 27 33 30 31 32 28 26 24 28 33 32 48 30 18 20 20 19 18 18 22 26
97 100 99 93 49 62 63 51 49 36 38 41 45 44 47 44 40 33 30 33 29 22 38 30 23 27 32 23 19 28 26 25 27 36 28 30 24 18 18 17 16 19 20 20 21
98 85 82 94 79 50 50 45 49 49 41 44 46 47 43 46 46 45 34 41 34 50 27 26 27 25 20 18 16 18 18 21 24 24 25 24 20 22 19 18 18 24 26 32 36
99 57 68 55 61 59 53 55 43 40 40 46 45 44 46 51 46 50 39 39 36 41 32 32 28 28 29 22 22 22 20 18 21 20 26 24 23 18 18 21 24 30 34 40 48
91 44 48 50 60 63 56 54 43 37 39 35 43 50 56 45 41 40 39 39 38 42 41 37 33 38 35 31 32 51 32 22 23 26 26 26 22 17 22 24 27 35 40 46 53
Wind_Speed
19 17 17 15 14 15 16 18 19 19 21 21 23 25 25 29 31 11 7 2 4 13 11 10 8 8 7 5 4 4 6 6 3 4 2 4 4 2 1 5 3 1 4 8 19
14 18 18 17 16 16 16 18 19 20 21 22 23 24 25 28 19 14 6 5 7 15 11 11 9 10 5 5 5 7 6 2 4 6 8 3 7 4 8 5 5 8 8 15 17
18 19 16 17 17 17 17 17 20 20 21 22 23 24 25 22 8 3 4 6 11 15 6 6 5 9 7 5 7 5 9 4 8 11 11 13 7 5 7 4 4 4 13 14 16
22 20 18 17 17 18 20 17 18 21 21 22 23 24 22 6 5 3 4 6 14 11 8 7 7 8 7 8 4 8 10 10 9 9 9 10 3 3 5 6 7 4 15 11 10
20 22 20 20 19 18 18 19 18 20 21 21 22 22 10 7 8 6 6 8 17 10 11 9 9 6 8 4 5 11 8 5 10 11 8 3 5 1 2 4 7 13 11 11 9
18 18 21 21 19 19 18 19 19 19 22 20 22 19 5 11 2 2 4 12 10 14 9 8 3 1 5 5 8 3 11 10 4 0 2 6 4 3 5 7 10 12 10 9 9
17 17 17 18 21 19 19 19 19 19 23 22 20 8 7 16 4 6 7 6 11 10 7 8 3 6 0 6 3 10 13 4 2 4 3 4 7 5 5 9 10 10 7 7 8
16 16 16 15 17 18 17 19 19 19 23 23 14 3 9 8 6 11 10 9 9 8 4 3 4 5 5 3 8 10 6 11 7 7 4 6 3 4 8 10 11 11 9 8 11
17 15 15 15 15 15 18 16 17 20 23 10 1 5 9 4 7 11 17 10 11 8 7 3 5 4 4 10 9 10 10 6 6 7 4 9 4 7 8 10 11 12 13 11 13
19 16 15 13 14 14 16 16 18 17 2 2 3 5 9 3 4 5 16 15 5 10 7 7 7 8 8 9 8 8 8 8 4 8 8 9 10 6 9 10 11 11 12 12 13
20 17 15 13 12 11 12 8 7 5 7 9 2 5 4 4 4 9 9 13 12 10 11 9 9 10 5 5 6 4 6 5 3 3 6 9 10 6 10 11 13 14 13 14 14
21 18 14 13 11 8 8 6 2 3 10 17 20 22 24 8 4 9 12 14 13 15 8 7 12 6 3 5 7 8 9 6 3 4 5 6 11 2 9 14 13 14 13 14 14
21 19 14 13 11 7 8 10 4 3 7 8 15 12 12 17 11 13 14 16 17 17 14 13 3 2 9 9 9 8 9 3 3 2 8 10 11 6 5 10 11 13 14 16 16
23 19 15 12 6 7 9 7 6 6 5 5 8 7 11 9 10 22 20 15 9 19 14 11 9 7 9 10 10 10 7 6 6 7 7 3 3 5 7 9 13 15 17 16 17
24 21 17 18 3 6 5 3 7 6 6 7 4 6 7 17 10 17 24 12 20 13 10 11 10 11 13 13 8 6 4 6 8 8 5 7 6 6 5 8 12 16 17 18 17
25 24 19 16 15 8 8 5 4 5 9 4 6 7 8 15 7 14 13 9 14 12 10 9 3 5 5 3 8 4 7 4 4 3 7 3 6 4 5 4 2 8 16 18 18
28 26 23 19 15 14 8 3 5 9 2 7 5 8 12 12 11 17 22 21 17 18 15 14 13 5 5 8 7 10 9 6 5 5 4 4 5 8 2 3 6 7 7 10 17
29 26 26 24 21 8 12 4 14 7 11 1 3 7 9 16 9 20 21 21 22 19 15 15 14 14 11 11 8 15 11 4 5 4 4 4 5 3 2 5 7 6 6 7 11
28 27 25 29 24 11 7 13 11 13 7 6 6 6 7 14 7 16 21 23 22 21 11 16 13 5 8 4 7 7 8 1 2 1 2 4 4 11 2 4 3 2 2 2 5
27 21 23 29 23 16 10 23 16 9 6 7 10 10 11 12 10 15 20 20 24 21 17 8 11 5 7 6 4 6 10 5 4 4 5 4 4 4 2 4 3 2 5 5 2
24 6 18 29 21 6 16 20 24 14 8 5 10 5 6 12 17 17 16 6 23 20 18 11 7 7 6 11 12 6 6 2 1 3 3 3 4 0 2 1 1 1 3 3 3
13 8 27 40 10 6 19 31 13 21 11 6 3 4 5 8 14 17 17 17 21 22 22 16 8 8 13 4 3 6 9 11 5 5 3 3 6 8 8 6 5 5 4 4 4
7 3 29 31 14 15 22 28 28 18 22 8 7 5 2 4 7 17 11 10 12 22 21 14 10 9 9 6 5 8 10 11 6 2 11 6 4 6 5 6 7 7 3 3 4
6 6 5 12 20 29 20 23 30 24 17 18 5 7 3 3 6 5 8 3 11 20 5 18 13 19 13 12 9 12 14 15 13 7 10 11 15 12 13 12 9 7 5 4 4
7 8 11 17 19 27 29 21 30 20 25 15 17 11 11 4 2 4 3 5 5 4 8 13 18 16 15 13 13 16 15 15 17 17 15 12 12 10 12 11 6 2 2 3 2
5 12 14 15 28 33 26 25 30 31 23 23 15 19 10 3 2 4 2 2 2 4 7 6 11 12 16 14 13 16 16 17 17 17 12 16 14 12 11 5 6 3 3 4 6
12 14 13 14 25 22 23 27 26 28 22 24 18 9 12 14 8 7 5 6 4 2 6 6 8 6 12 6 6 7 15 16 15 14 15 15 14 11 9 10 7 5 5 7 9
Wind_Direction
297 295 301 307 314 322 329 332 334 337 334 334 335 336 336 328 325 308 253 226 187 175 154 149 165 170 184 177 204 242 253 267 277 264 316 128 242 213 236 210 174 58 284 87 131
300 298 292 298 308 315 324 327 330 333 334 334 334 335 336 329 321 278 234 201 179 172 173 182 182 182 190 187 198 237 267 306 311 289 283 275 246 190 224 204 177 139 99 129 134
295 294 304 298 299 307 315 321 324 329 332 333 332 335 334 331 290 129 158 173 163 172 214 207 209 207 216 198 198 202 270 351 288 280 299 291 264 238 244 254 9 186 150 150 160
289 288 290 293 295 295 303 312 319 323 328 331 330 334 335 317 307 133 221 217 187 188 199 187 197 206 237 224 188 252 257 281 289 306 294 291 306 245 281 9 333 114 149 147 143
285 285 283 289 289 293 295 301 311 316 320 326 329 336 347 283 263 265 273 197 183 189 207 200 206 216 234 227 225 245 267 300 307 299 272 242 233 272 141 16 86 113 142 146 146
295 289 282 279 289 292 291 293 298 308 312 319 324 330 305 273 237 226 158 152 186 196 200 203 220 254 264 258 252 328 286 294 289 283 177 233 190 235 115 121 106 133 146 153 155
296 296 295 286 282 288 288 289 293 301 307 311 313 315 264 261 221 198 191 207 179 207 189 199 231 237 192 233 266 282 281 217 217 165 166 240 214 226 121 136 130 143 152 163 170
286 298 296 299 280 287 287 285 288 299 302 305 302 254 258 255 229 229 217 220 198 223 218 171 209 278 251 304 244 260 258 252 139 172 148 242 88 116 162 170 152 163 167 201 174
279 284 296 297 295 283 287 286 296 293 299 297 246 240 262 256 228 237 206 209 205 206 199 157 214 260 213 248 248 217 260 241 151 205 178 228 314 120 169 191 171 175 170 183 171
276 277 290 290 302 289 282 283 285 287 248 229 234 256 238 230 166 169 192 197 181 156 161 202 217 237 222 240 253 208 226 219 226 168 219 211 264 152 181 196 199 186 176 181 184
270 272 279 286 296 296 295 289 235 197 211 231 195 265 281 317 245 196 173 179 202 205 207 199 226 226 236 233 311 247 228 234 105 110 227 243 280 282 191 204 203 195 188 189 188
257 265 269 285 287 289 263 257 287 10 290 251 250 251 257 287 293 195 172 187 195 204 183 199 227 230 242 239 244 236 220 209 150 142 248 247 275 317 197 211 212 209 203 197 191
251 252 259 277 286 258 221 242 221 323 267 264 228 235 231 202 226 217 189 204 200 203 201 224 119 199 205 208 225 232 264 195 308 202 241 273 252 204 189 214 211 221 221 211 202
242 245 244 257 264 220 223 223 226 209 273 232 212 228 189 183 226 218 201 193 199 208 201 229 220 224 228 240 234 237 223 250 240 267 262 282 236 164 192 213 218 215 210 215 209
237 237 230 224 308 202 125 164 199 194 274 125 164 125 167 192 124 188 189 199 203 189 189 203 193 206 228 238 217 253 171 243 268 277 258 195 255 134 181 229 225 220 217 214 213
236 232 221 228 240 207 171 90 175 221 240 182 151 180 164 207 214 145 166 211 213 181 215 210 142 202 224 198 226 141 179 215 233 237 234 178 261 205 216 261 299 228 223 223 215
233 227 215 209 223 209 195 180 188 231 73 171 184 178 202 183 203 186 176 187 184 189 200 196 205 181 201 202 179 205 196 217 200 198 241 130 232 280 330 290 291 287 267 237 224
225 220 222 215 224 215 194 187 223 229 222 347 156 188 199 176 204 192 182 190 203 200 194 198 199 206 186 229 218 203 216 229 239 203 168 188 239 129 56 296 295 287 279 270 240
218 218 218 217 216 222 201 205 215 206 206 223 148 173 213 194 197 187 198 198 193 201 189 199 204 142 195 190 227 172 215 344 141 51 259 251 239 245 153 268 258 315 261 216 224
202 210 211 213 211 234 204 221 214 205 209 223 213 200 185 205 197 198 192 209 199 201 207 196 203 192 148 178 178 272 142 178 217 216 234 172 260 300 54 114 93 53 30 31 75
192 209 200 196 196 229 213 213 219 196 206 213 211 214 223 182 209 202 194 181 197 198 208 194 220 151 181 205 198 175 198 227 291 279 262 268 273 143 193 138 232 274 317 344 12
181 202 170 168 191 227 221 208 205 212 195 213 254 236 226 199 204 210 208 213 199 185 192 196 208 203 204 96 273 263 227 205 234 189 228 278 262 223 266 260 250 261 271 282 299
185 144 170 172 192 223 225 217 217 189 207 199 215 227 226 217 205 216 216 196 188 194 200 178 209 207 199 190 191 211 207 223 236 264 231 233 260 162 186 219 226 253 235 250 278
174 164 146 201 207 206 209 218 210 216 217 215 218 220 237 231 215 208 218 169 192 205 186 179 203 216 224 227 207 206 217 213 219 228 256 241 282 264 254 257 257 217 204 242 241
184 185 172 187 205 203 217 209 206 197 215 205 210 227 211 226 170 185 187 145 148 164 194 203 217 215 233 246 248 237 239 222 226 234 250 267 275 260 273 285 259 249 214 172 136
190 185 175 178 201 201 200 216 208 205 194 202 216 207 216 221 48 125 36 82 122 163 172 190 215 214 225 228 231 241 243 250 234 254 257 260 265 264 269 252 223 220 175 128 93
213 200 175 210 197 203 202 204 216 203 212 207 200 188 209 239 274 283 319 306 312 298 181 191 195 185 226 212 221 252 238 238 229 226 234 254 263 278 245 224 216 200 162 125 105